Location: Puketoi
(40.5833°S, 176.0167°E)
Time: 14:55:17
(UTC+00:00)

Meteor 1-31 Rocket - Pass Details

Date: 08 February 2023
Orbit: 511 x 535 km, 97.7° (Epoch: 22 March)

Event Time Altitude Azimuth Distance (km) Brightness Sun altitude
Rises 16:52:32 0° 26° (NNE) 2,673 6.3 -7.8°
Reaches altitude 10° 16:54:41 10° 32° (NNE) 1,787 5.5 -7.4°
Maximum altitude 16:58:24 49° 106° (ESE) 703 3.9 -6.8°
Drops below altitude 10° 17:02:09 10° 181° (S) 1,798 5.8 -6.2°
Sets 17:04:19 0° 186° (S) 2,691 6.6 -5.8°
